User: anonymous   Login
Location: Lesignano de� Bagni
(44.6500°N, 10.3000°E)
Time: 15:29:43
(UTC+00:00)
Language:

Cosmos 2219 Rocket - Orbit

View from above orbital plane
View from above orbital plane
View from above satellite
View from above satellite

Ground track
Ground track

The orbit data is extracted from the following two-line orbital elements,

1 22220U 92076B   21131.89036719  .00000085  00000-0  66833-4 0  9996
2 22220  70.9993 300.1976 0015009 262.7053 203.1202 14.16467871472180
Epoch (UTC): 11 May 2021 21:22:07
Eccentricity: 0.0015009
inclination: 70.9993°
perigee height: 826 km
apogee height: 848 km
right ascension of ascending node: 300.1976°
argument of perigee: 262.7053°
revolutions per day: 14.16467871
mean anomaly at epoch: 203.1202°
orbit number at epoch: 47218

The dashed part of the orbit path shows where the satellite is in the earth's shadow,  

DLR